Data No, UTC Date,UTC Time,Latitude,Longitude,Course(deg),Temp(degC),Sal(psu)
610,2020/8/15,10:09,35-35.82N,139-47.18E,219,25.9,20.9072
611,2020/8/15,10:10,35-35.64N,139-47.09E,191,29.588,22.6992
612,2020/8/15,10:11,35-35.49N,139-47.15E,155,30.742,23.319
613,2020/8/15,10:12,35-35.31N,139-47.29E,147,26.029,20.3466
614,2020/8/15,10:13,35-35.12N,139-47.44E,144,25.538,20.3544
615,2020/8/15,10:14,35-34.93N,139-47.64E,140,25.816,22.9379
616,2020/8/15,10:15,35-34.73N,139-47.86E,135,25.671,24.0329
617,2020/8/15,10:16,35-34.55N,139-48.10E,131,26.358,24.7879
618,2020/8/15,10:17,35-34.37N,139-48.36E,129,26.799,25.3185
619,2020/8/15,10:18,35-34.20N,139-48.64E,126,26.543,25.5615
620,2020/8/15,10:19,35-34.02N,139-48.93E,127,26.866,25.7669
621,2020/8/15,10:20,35-33.84N,139-49.22E,127,26.957,25.6455
622,2020/8/15,10:21,35-33.66N,139-49.51E,127,27.034,25.333
623,2020/8/15,10:22,35-33.48N,139-49.81E,126,27.438,25.3585
624,2020/8/15,10:23,35-33.30N,139-50.11E,126,27.644,25.2346
625,2020/8/15,10:24,35-33.12N,139-50.40E,129,28.118,25.1841
626,2020/8/15,10:25,35-32.89N,139-50.66E,145,29.102,25.0942
627,2020/8/15,10:26,35-32.61N,139-50.76E,170,30.156,24.235
628,2020/8/15,10:27,35-32.32N,139-50.81E,172,28.417,23.531
629,2020/8/15,10:28,35-32.03N,139-50.85E,172,28.426,24.0395
630,2020/8/15,10:29,35-31.73N,139-50.90E,173,28.502,24.9094
631,2020/8/15,10:30,35-31.42N,139-50.94E,173,28.509,25.2159
632,2020/8/15,10:31,35-31.12N,139-50.98E,177,29.208,25.3718
633,2020/8/15,10:32,35-30.81N,139-50.96E,182,29.236,25.3285
634,2020/8/15,10:33,35-30.51N,139-50.94E,184,29.03,24.6914
635,2020/8/15,10:34,35-30.21N,139-50.87E,194,29.599,24.5451
636,2020/8/15,10:35,35-29.91N,139-50.76E,197,29.36,24.4872
637,2020/8/15,10:36,35-29.63N,139-50.61E,205,29.524,24.4214
638,2020/8/15,10:37,35-29.38N,139-50.39E,217,29.46,24.5094
639,2020/8/15,10:38,35-29.14N,139-50.16E,217,28.302,24.4249
640,2020/8/15,10:39,35-28.92N,139-49.90E,229,29.391,24.9306
641,2020/8/15,10:40,35-28.73N,139-49.59E,233,28.655,25.151
642,2020/8/15,10:41,35-28.55N,139-49.29E,233,28.152,25.0043
643,2020/8/15,10:42,35-28.36N,139-48.98E,233,28.729,25.4403
644,2020/8/15,10:43,35-28.18N,139-48.69E,233,28.464,25.7047
645,2020/8/15,10:44,35-27.99N,139-48.38E,233,28.417,25.4311
646,2020/8/15,10:45,35-27.80N,139-48.06E,234,28.856,25.5394
647,2020/8/15,10:46,35-27.62N,139-47.76E,233,28.599,25.5726
648,2020/8/15,10:47,35-27.43N,139-47.45E,234,28.383,25.4665
649,2020/8/15,10:48,35-27.25N,139-47.14E,234,28.584,25.787
650,2020/8/15,10:49,35-27.08N,139-46.82E,235,29.052,25.8943
651,2020/8/15,10:50,35-26.89N,139-46.51E,235,29.066,25.8425
652,2020/8/15,10:51,35-26.70N,139-46.17E,235,28.665,25.5677
653,2020/8/15,10:52,35-26.49N,139-45.85E,228,28.506,25.7016
654,2020/8/15,10:53,35-26.27N,139-45.60E,224,27.986,26.0706
655,2020/8/15,10:54,35-26.05N,139-45.34E,224,28.529,26.4492
656,2020/8/15,10:55,35-25.82N,139-45.07E,224,28.411,26.5272
657,2020/8/15,10:56,35-25.61N,139-44.79E,227,28.447,26.3471
658,2020/8/15,10:57,35-25.41N,139-44.50E,230,28.112,26.1267
659,2020/8/15,10:58,35-25.21N,139-44.22E,230,27.952,26.4946
660,2020/8/15,10:59,35-24.99N,139-43.93E,230,27.859,26.5583
661,2020/8/15,11:00,35-24.78N,139-43.64E,231,27.909,26.6672
662,2020/8/15,11:01,35-24.58N,139-43.35E,231,27.893,26.9054
663,2020/8/15,11:02,35-24.34N,139-43.13E,211,28.876,26.8947
664,2020/8/15,11:03,35-24.06N,139-42.98E,205,28.187,26.8837
665,2020/8/15,11:04,35-23.78N,139-42.82E,205,28.148,26.4799
666,2020/8/15,11:05,35-23.49N,139-42.66E,205,28.01,26.7744
667,2020/8/15,11:06,35-23.21N,139-42.50E,205,28.189,26.9804
668,2020/8/15,11:07,35-22.91N,139-42.35E,203,28.108,27.0728
669,2020/8/15,11:08,35-22.61N,139-42.30E,183,28.709,27.0574
670,2020/8/15,11:09,35-22.31N,139-42.31E,175,28.069,27.1809
671,2020/8/15,11:10,35-22.00N,139-42.37E,172,28.219,27.026
672,2020/8/15,11:11,35-21.69N,139-42.41E,173,28.053,27.2739
673,2020/8/15,11:12,35-21.38N,139-42.45E,173,27.831,27.1981
674,2020/8/15,11:13,35-21.09N,139-42.50E,173,27.802,27.5347
675,2020/8/15,11:14,35-20.82N,139-42.54E,173,27.904,27.954
676,2020/8/15,11:15,35-20.52N,139-42.58E,172,27.666,28.0528
677,2020/8/15,11:16,35-20.29N,139-42.62E,172,27.494,28.263
678,2020/8/15,11:17,35-20.05N,139-42.67E,169,27.291,28.4451
679,2020/8/15,11:18,35-19.85N,139-42.72E,169,27.445,28.6425
680,2020/8/15,11:19,35-19.62N,139-42.77E,166,27.262,28.6069
681,2020/8/15,11:20,35-19.44N,139-42.91E,145,29.237,28.5846
682,2020/8/15,11:21,35-19.27N,139-43.06E,144,27.517,28.5238
683,2020/8/15,11:22,35-19.09N,139-43.22E,145,27.336,27.5119
684,2020/8/15,11:23,35-18.92N,139-43.37E,145,27.402,28.2165
685,2020/8/15,11:24,35-18.74N,139-43.52E,145,27.866,28.4861
686,2020/8/15,11:25,35-18.55N,139-43.67E,145,27.682,28.5352
687,2020/8/15,11:26,35-18.37N,139-43.82E,145,27.891,28.4576
688,2020/8/15,11:27,35-18.20N,139-43.98E,145,28.436,28.4455
689,2020/8/15,11:28,35-18.01N,139-44.13E,144,28.994,28.3902
690,2020/8/15,11:29,35-17.83N,139-44.30E,143,29.205,28.0138
691,2020/8/15,11:30,35-17.65N,139-44.46E,142,29.309,27.4069
692,2020/8/15,11:31,35-17.50N,139-44.60E,144,28.911,27.0655
693,2020/8/15,11:32,35-17.31N,139-44.76E,144,28.873,26.9726
694,2020/8/15,11:33,35-17.10N,139-44.94E,143,28.847,27.2711
695,2020/8/15,11:34,35-16.93N,139-45.10E,143,28.74,27.3534
696,2020/8/15,11:35,35-16.74N,139-45.27E,143,28.777,27.4601
697,2020/8/15,11:36,35-16.56N,139-45.43E,143,28.789,27.541
698,2020/8/15,11:37,35-16.37N,139-45.60E,143,28.76,27.6049
699,2020/8/15,11:38,35-16.19N,139-45.75E,145,28.939,27.6686
700,2020/8/15,11:39,35-16.01N,139-45.91E,145,28.873,27.7372
701,2020/8/15,11:40,35-15.82N,139-46.07E,145,28.722,27.6825
702,2020/8/15,11:41,35-15.63N,139-46.21E,150,29.071,27.7061
703,2020/8/15,11:42,35-15.41N,139-46.30E,163,29.246,27.7205
704,2020/8/15,11:43,35-15.19N,139-46.32E,175,29.167,27.406
705,2020/8/15,11:44,35-14.98N,139-46.35E,176,28.461,26.9568
706,2020/8/15,11:45,35-14.74N,139-46.35E,178,28.007,27.1899
707,2020/8/15,11:46,35-14.52N,139-46.36E,177,27.601,27.6513
708,2020/8/15,11:47,35-14.31N,139-46.37E,178,27.506,27.9881
709,2020/8/15,11:48,35-14.10N,139-46.38E,178,27.43,28.2213
710,2020/8/15,11:49,35-13.87N,139-46.38E,178,26.69,28.3848
711,2020/8/15,11:50,35-13.64N,139-46.38E,180,26.427,28.5713
712,2020/8/15,11:51,35-13.39N,139-46.38E,180,26.893,28.7386
713,2020/8/15,11:52,35-13.17N,139-46.39E,177,27.279,28.7825
714,2020/8/15,11:53,35-12.94N,139-46.38E,184,28.298,28.8029
715,2020/8/15,11:54,35-12.72N,139-46.31E,194,28.419,28.6653
716,2020/8/15,11:55,35-12.54N,139-46.25E,194,28.372,27.7358
717,2020/8/15,11:56,35-12.31N,139-46.18E,194,28.327,27.8198
718,2020/8/15,11:57,35-12.04N,139-46.10E,194,28.167,27.9185
719,2020/8/15,11:58,35-11.76N,139-46.01E,194,28.228,28.0093
720,2020/8/15,11:59,35-11.50N,139-45.93E,195,28.059,28.0796
721,2020/8/15,12:00,35-11.22N,139-45.84E,195,27.771,28.1811
722,2020/8/15,12:01,35-10.97N,139-45.75E,194,27.649,28.2371
723,2020/8/15,12:02,35-10.71N,139-45.67E,195,27.51,28.3474
724,2020/8/15,12:03,35-10.39N,139-45.56E,195,27.453,28.4685
725,2020/8/15,12:04,35-10.12N,139-45.47E,195,27.505,28.6217
726,2020/8/15,12:05,35-09.84N,139-45.38E,195,27.499,28.6841
727,2020/8/15,12:06,35-09.61N,139-45.31E,195,27.52,28.7582
728,2020/8/15,12:07,35-09.30N,139-45.20E,195,27.52,28.7902
729,2020/8/15,12:08,35-09.03N,139-45.10E,195,27.65,28.8276
730,2020/8/15,12:09,35-08.75N,139-45.01E,195,27.672,28.7966
731,2020/8/15,12:10,35-08.47N,139-44.91E,195,27.474,28.7311
732,2020/8/15,12:11,35-08.23N,139-44.83E,194,27.321,28.7351
733,2020/8/15,12:12,35-07.96N,139-44.74E,195,27.399,28.8249
734,2020/8/15,12:13,35-07.68N,139-44.64E,195,27.357,28.7826
735,2020/8/15,12:14,35-07.41N,139-44.55E,195,27.132,28.742
736,2020/8/15,12:15,35-07.13N,139-44.46E,195,26.816,28.8069
737,2020/8/15,12:16,35-06.86N,139-44.37E,195,27.001,28.9722
738,2020/8/15,12:17,35-06.59N,139-44.28E,195,27.089,29.0193
739,2020/8/15,12:18,35-06.31N,139-44.19E,195,26.986,28.9627
740,2020/8/15,12:19,35-06.04N,139-44.10E,195,26.518,28.8824
741,2020/8/15,12:20,35-05.76N,139-44.00E,195,25.992,29.0774
742,2020/8/15,12:21,35-05.49N,139-43.91E,195,26.012,29.3804
743,2020/8/15,12:22,35-05.21N,139-43.82E,196,26.178,29.6407
744,2020/8/15,12:23,35-04.94N,139-43.72E,196,25.806,29.745
745,2020/8/15,12:24,35-04.66N,139-43.62E,195,25.291,29.846
746,2020/8/15,12:25,35-04.38N,139-43.53E,195,25.13,30.0351
747,2020/8/15,12:26,35-04.11N,139-43.43E,196,25.298,30.2048
748,2020/8/15,12:27,35-03.84N,139-43.34E,195,25.325,30.319
749,2020/8/15,12:28,35-03.56N,139-43.24E,195,25.707,30.3913
750,2020/8/15,12:29,35-03.28N,139-43.15E,195,26.561,30.3878
751,2020/8/15,12:30,35-03.00N,139-43.05E,195,26.96,30.239
752,2020/8/15,12:31,35-02.74N,139-42.96E,195,26.658,29.6635
753,2020/8/15,12:32,35-02.46N,139-42.87E,195,25.699,29.4012
754,2020/8/15,12:33,35-02.18N,139-42.78E,194,24.998,29.7514
755,2020/8/15,12:34,35-01.91N,139-42.69E,194,25.306,30.226
756,2020/8/15,12:35,35-01.61N,139-42.59E,194,25.569,30.4765
757,2020/8/15,12:36,35-01.36N,139-42.52E,194,26.031,30.5394
758,2020/8/15,12:37,35-01.11N,139-42.44E,194,26.159,30.9183
759,2020/8/15,12:38,35-00.83N,139-42.35E,194,26.43,31.1742
760,2020/8/15,12:39,35-00.57N,139-42.28E,193,26.294,31.4691
761,2020/8/15,12:40,35-00.29N,139-42.20E,193,25.806,31.7358
762,2020/8/15,12:41,35-00.03N,139-42.12E,193,26.215,31.9789
763,2020/8/15,12:42,34-59.76N,139-42.05E,191,26.737,32.1476
764,2020/8/15,12:43,34-59.48N,139-42.00E,185,26.384,32.1379
765,2020/8/15,12:44,34-59.21N,139-42.00E,178,25.679,32.0485
766,2020/8/15,12:45,34-58.93N,139-42.03E,173,26.028,32.0983
767,2020/8/15,12:46,34-58.66N,139-42.08E,171,26.069,32.0458
768,2020/8/15,12:47,34-58.39N,139-42.14E,167,25.346,31.9435
769,2020/8/15,12:48,34-58.11N,139-42.23E,165,25.247,31.9031
770,2020/8/15,12:49,34-57.83N,139-42.31E,166,25.187,32.0057
771,2020/8/15,12:50,34-57.54N,139-42.40E,164,25.011,32.02
772,2020/8/15,12:51,34-57.23N,139-42.52E,162,24.632,32.0113
773,2020/8/15,12:52,34-56.96N,139-42.65E,156,23.758,32.1322
774,2020/8/15,12:53,34-56.73N,139-42.80E,152,23.6,32.319
775,2020/8/15,12:54,34-56.47N,139-42.98E,149,23.991,32.4873
776,2020/8/15,12:55,34-56.21N,139-43.18E,148,24.466,32.5031
777,2020/8/15,12:56,34-55.96N,139-43.37E,147,24.275,32.4896
778,2020/8/15,12:57,34-55.70N,139-43.57E,147,24.586,32.4584
779,2020/8/15,12:58,34-55.44N,139-43.77E,147,24.224,32.4443
780,2020/8/15,12:59,34-55.19N,139-43.96E,147,24.046,32.4308
781,2020/8/15,13:00,34-54.93N,139-44.17E,147,23.941,32.5329
782,2020/8/15,13:01,34-54.67N,139-44.37E,148,24.15,32.5813
783,2020/8/15,13:02,34-54.41N,139-44.57E,148,24.087,32.5895
784,2020/8/15,13:03,34-54.14N,139-44.77E,147,23.752,32.57
785,2020/8/15,13:04,34-53.88N,139-44.97E,145,23.858,32.5991
786,2020/8/15,13:05,34-53.65N,139-45.22E,136,23.975,32.6459
787,2020/8/15,13:06,34-53.45N,139-45.49E,128,24.135,32.6278
788,2020/8/15,13:07,34-53.27N,139-45.83E,120,24.011,32.6032
789,2020/8/15,13:08,34-53.15N,139-46.13E,118,24.059,32.5133
790,2020/8/15,13:09,34-53.00N,139-46.45E,119,24.138,32.5932
791,2020/8/15,13:10,34-52.84N,139-46.79E,119,24.204,32.6136
792,2020/8/15,13:11,34-52.69N,139-47.12E,119,23.843,32.6055
793,2020/8/15,13:12,34-52.53N,139-47.46E,119,23.65,32.6808
794,2020/8/15,13:13,34-52.38N,139-47.81E,118,24.312,32.7466
795,2020/8/15,13:14,34-52.23N,139-48.17E,115,24.162,32.7602
796,2020/8/15,13:15,34-52.09N,139-48.55E,114,24.932,32.7598
797,2020/8/15,13:16,34-51.99N,139-48.84E,111,24.944,32.7271
798,2020/8/15,13:17,34-51.91N,139-49.19E,104,23.333,32.5701
799,2020/8/15,13:18,34-51.85N,139-49.56E,101,23.417,32.6992
800,2020/8/15,13:19,34-51.79N,139-49.96E,100,23.658,32.8964
801,2020/8/15,13:20,34-51.75N,139-50.31E,99,22.763,32.858
802,2020/8/15,13:21,34-51.70N,139-50.65E,103,22.592,32.9039
803,2020/8/15,13:22,34-51.66N,139-50.99E,97,22.064,32.9928
804,2020/8/15,13:23,34-51.65N,139-51.34E,93,22.076,33.0479
805,2020/8/15,13:24,34-51.66N,139-51.63E,89,21.854,33.089
806,2020/8/15,13:25,34-51.66N,139-51.97E,88,21.748,33.0925
807,2020/8/15,13:26,34-51.67N,139-52.32E,88,21.904,33.1851
808,2020/8/15,13:27,34-51.69N,139-52.66E,86,22.198,33.2099
809,2020/8/15,13:28,34-51.71N,139-53.02E,85,22.733,33.1725
810,2020/8/15,13:29,34-51.74N,139-53.36E,86,22.905,33.2072
811,2020/8/15,13:30,34-51.76N,139-53.70E,83,22.493,33.2243
812,2020/8/15,13:31,34-51.82N,139-54.04E,76,21.458,33.2755
813,2020/8/15,13:32,34-51.91N,139-54.35E,69,21.734,33.3884
814,2020/8/15,13:33,34-52.02N,139-54.66E,65,22.273,33.472
815,2020/8/15,13:34,34-52.16N,139-54.99E,63,22.741,33.4507
816,2020/8/15,13:35,34-52.28N,139-55.30E,63,22.787,33.4041
817,2020/8/15,13:36,34-52.40N,139-55.61E,64,22.567,33.3621
818,2020/8/15,13:37,34-52.50N,139-55.87E,65,22.475,33.3607
819,2020/8/15,13:38,34-52.62N,139-56.19E,65,22.638,33.4046
820,2020/8/15,13:39,34-52.73N,139-56.49E,65,22.536,33.3975
821,2020/8/15,13:40,34-52.85N,139-56.80E,63,22.903,33.408
822,2020/8/15,13:41,34-52.98N,139-57.11E,64,23.117,33.4019
823,2020/8/15,13:42,34-53.10N,139-57.41E,65,22.996,33.367
824,2020/8/15,13:43,34-53.22N,139-57.72E,65,22.967,33.3489
825,2020/8/15,13:44,34-53.33N,139-58.03E,64,23.049,33.3679
826,2020/8/15,13:45,34-53.46N,139-58.33E,63,23.188,33.3756
827,2020/8/15,13:46,34-53.58N,139-58.64E,63,23.244,33.3714
828,2020/8/15,13:47,34-53.70N,139-58.94E,63,23.483,33.3516
829,2020/8/15,13:48,34-53.82N,139-59.25E,64,23.417,33.332
830,2020/8/15,13:49,34-53.94N,139-59.56E,64,23.555,33.3021
831,2020/8/15,13:50,34-54.06N,139-59.86E,64,23.657,33.2987
832,2020/8/15,13:51,34-54.18N,140-00.17E,64,23.819,33.2738
833,2020/8/15,13:52,34-54.31N,140-00.51E,64,23.952,33.2636
834,2020/8/15,13:53,34-54.43N,140-00.81E,64,24.091,33.2394
835,2020/8/15,13:54,34-54.53N,140-01.08E,64,24.2,33.2173
836,2020/8/15,13:55,34-54.65N,140-01.38E,64,24.046,33.1877
837,2020/8/15,13:56,34-54.79N,140-01.73E,64,23.7,33.1658
838,2020/8/15,13:57,34-54.91N,140-02.03E,64,22.996,33.1507
839,2020/8/15,13:58,34-55.03N,140-02.34E,63,22.522,33.2017
840,2020/8/15,13:59,34-55.15N,140-02.64E,64,22.602,33.2704
841,2020/8/15,14:00,34-55.26N,140-02.95E,64,23.249,33.2866
842,2020/8/15,14:01,34-55.38N,140-03.26E,64,22.905,33.2386
843,2020/8/15,14:02,34-55.49N,140-03.58E,64,22.833,33.1382
844,2020/8/15,14:03,34-55.62N,140-03.88E,64,22.977,33.1564
845,2020/8/15,14:04,34-55.74N,140-04.17E,64,23.208,33.1545
846,2020/8/15,14:05,34-55.85N,140-04.48E,63,23.386,33.1174
847,2020/8/15,14:06,34-55.97N,140-04.79E,64,23.503,33.0747
848,2020/8/15,14:07,34-56.08N,140-05.10E,67,23.832,33.0324
849,2020/8/15,14:08,34-56.18N,140-05.42E,68,23.9,32.993
850,2020/8/15,14:09,34-56.28N,140-05.73E,69,24.29,32.931
851,2020/8/15,14:10,34-56.37N,140-06.05E,69,24.461,32.899
852,2020/8/15,14:11,34-56.45N,140-06.33E,70,24.428,32.8506
853,2020/8/15,14:12,34-56.55N,140-06.68E,70,24.59,32.8174
854,2020/8/15,14:13,34-56.65N,140-07.01E,70,24.787,32.8283
855,2020/8/15,14:14,34-56.74N,140-07.33E,70,24.879,32.8098
856,2020/8/15,14:15,34-56.85N,140-07.64E,67,24.626,32.7911
857,2020/8/15,14:16,34-56.96N,140-07.90E,62,24.216,32.7962
858,2020/8/15,14:17,34-57.09N,140-08.19E,60,24.52,32.9025
859,2020/8/15,14:18,34-57.23N,140-08.49E,59,24.432,32.9195
860,2020/8/15,14:19,34-57.38N,140-08.77E,59,24.65,32.9223
861,2020/8/15,14:20,34-57.51N,140-09.08E,59,24.662,32.9303
862,2020/8/15,14:21,34-57.65N,140-09.38E,60,24.723,32.9279
863,2020/8/15,14:22,34-57.79N,140-09.66E,59,24.672,32.9446
864,2020/8/15,14:23,34-57.94N,140-09.95E,59,24.279,32.9481
865,2020/8/15,14:24,34-58.07N,140-10.24E,59,24.386,33.0247
866,2020/8/15,14:25,34-58.22N,140-10.54E,59,23.846,33.0735
867,2020/8/15,14:26,34-58.36N,140-10.84E,59,23.908,33.1431
868,2020/8/15,14:27,34-58.50N,140-11.14E,60,23.833,33.2008
869,2020/8/15,14:28,34-58.64N,140-11.44E,60,23.85,33.26
870,2020/8/15,14:29,34-58.78N,140-11.73E,59,23.91,33.2926
871,2020/8/15,14:30,34-58.92N,140-12.04E,62,24.467,33.3216
872,2020/8/15,14:31,34-59.04N,140-12.35E,64,24.426,33.3021
873,2020/8/15,14:32,34-59.16N,140-12.66E,65,23.84,33.2626
874,2020/8/15,14:33,34-59.28N,140-12.97E,65,23.466,33.2839
875,2020/8/15,14:34,34-59.40N,140-13.31E,64,23.261,33.3198
876,2020/8/15,14:35,34-59.53N,140-13.64E,64,23.085,33.3009
877,2020/8/15,14:36,34-59.64N,140-13.92E,64,23.094,33.3085
878,2020/8/15,14:37,34-59.76N,140-14.21E,64,23.205,33.2914
879,2020/8/15,14:38,34-59.88N,140-14.53E,64,23.483,33.2661
880,2020/8/15,14:39,35-00.00N,140-14.84E,65,23.694,33.2282
881,2020/8/15,14:40,35-00.12N,140-15.14E,64,23.915,33.1837
882,2020/8/15,14:41,35-00.24N,140-15.46E,64,23.918,33.1299
883,2020/8/15,14:42,35-00.36N,140-15.76E,64,24.103,33.1017
884,2020/8/15,14:43,35-00.48N,140-16.08E,64,23.832,33.1265
885,2020/8/15,14:44,35-00.60N,140-16.38E,65,23.804,33.1341
886,2020/8/15,14:45,35-00.71N,140-16.69E,66,24.042,33.1983
887,2020/8/15,14:46,35-00.84N,140-17.05E,68,24.255,33.2205
888,2020/8/15,14:47,35-00.93N,140-17.36E,69,24.28,33.1972
889,2020/8/15,14:48,35-01.03N,140-17.69E,69,24.303,33.1675
890,2020/8/15,14:49,35-01.13N,140-18.00E,69,24.229,33.1328
891,2020/8/15,14:50,35-01.21N,140-18.28E,68,23.901,33.1044
892,2020/8/15,14:51,35-01.33N,140-18.58E,65,24.005,33.0965
893,2020/8/15,14:52,35-01.44N,140-18.88E,63,24.016,33.097
894,2020/8/15,14:53,35-01.56N,140-19.18E,64,24.018,33.0636
895,2020/8/15,14:54,35-01.68N,140-19.47E,63,23.895,33.0389
896,2020/8/15,14:55,35-01.81N,140-19.76E,60,23.958,33.0151
897,2020/8/15,14:56,35-01.97N,140-20.09E,59,23.981,32.9971
898,2020/8/15,14:57,35-02.10N,140-20.37E,60,24.083,32.9755
899,2020/8/15,14:58,35-02.23N,140-20.66E,60,24.157,32.9483
900,2020/8/15,14:59,35-02.37N,140-20.94E,59,24.184,32.9358
901,2020/8/15,15:00,35-02.51N,140-21.22E,59,24.247,32.9171
902,2020/8/15,15:01,35-02.66N,140-21.51E,58,24.316,32.8956
903,2020/8/15,15:02,35-02.78N,140-21.75E,59,24.35,32.8907
904,2020/8/15,15:03,35-02.91N,140-22.03E,59,24.226,32.8841
905,2020/8/15,15:04,35-03.05N,140-22.31E,59,24.116,32.8647
906,2020/8/15,15:05,35-03.19N,140-22.59E,58,24.147,32.8565
907,2020/8/15,15:06,35-03.33N,140-22.88E,59,24.24,32.8565
908,2020/8/15,15:07,35-03.46N,140-23.15E,58,24.321,32.8512
909,2020/8/15,15:08,35-03.60N,140-23.43E,58,24.417,32.8282
910,2020/8/15,15:09,35-03.77N,140-23.76E,59,24.661,32.8
911,2020/8/15,15:10,35-03.91N,140-24.04E,59,24.725,32.7833
912,2020/8/15,15:11,35-04.05N,140-24.32E,59,24.622,32.8112
913,2020/8/15,15:12,35-04.18N,140-24.60E,59,24.599,32.9199
914,2020/8/15,15:13,35-04.33N,140-24.88E,58,24.583,32.9409
915,2020/8/15,15:14,35-04.46N,140-25.15E,58,24.789,32.9404
916,2020/8/15,15:15,35-04.60N,140-25.43E,59,24.718,32.9192
917,2020/8/15,15:16,35-04.75N,140-25.72E,59,24.593,32.8994
918,2020/8/15,15:17,35-04.89N,140-26.01E,59,24.934,32.9052
919,2020/8/15,15:18,35-05.03N,140-26.29E,59,25.004,32.9098
920,2020/8/15,15:19,35-05.15N,140-26.54E,59,24.788,32.8895
921,2020/8/15,15:20,35-05.28N,140-26.80E,58,24.685,32.8782
922,2020/8/15,15:21,35-05.43N,140-27.09E,57,24.524,32.9144
923,2020/8/15,15:22,35-05.56N,140-27.37E,59,24.606,32.9406
924,2020/8/15,15:23,35-05.70N,140-27.65E,58,24.518,32.9417
925,2020/8/15,15:24,35-05.84N,140-27.94E,59,24.313,32.9377
926,2020/8/15,15:25,35-05.98N,140-28.21E,58,24.87,32.9268
927,2020/8/15,15:26,35-06.12N,140-28.50E,59,25.034,32.9181
928,2020/8/15,15:27,35-06.26N,140-28.78E,58,24.877,32.9064
929,2020/8/15,15:28,35-06.40N,140-29.06E,59,24.952,32.8917
930,2020/8/15,15:29,35-06.54N,140-29.35E,60,24.646,32.8869
931,2020/8/15,15:30,35-06.69N,140-29.67E,60,24.756,32.8772
932,2020/8/15,15:31,35-06.82N,140-29.94E,59,24.254,32.8662
933,2020/8/15,15:32,35-06.95N,140-30.19E,58,24.465,32.8497
934,2020/8/15,15:33,35-07.08N,140-30.48E,59,25.063,32.8047
935,2020/8/15,15:34,35-07.24N,140-30.82E,59,25.093,32.7308
936,2020/8/15,15:35,35-07.38N,140-31.10E,60,25.434,32.6528
937,2020/8/15,15:36,35-07.52N,140-31.39E,59,25.403,32.6186
938,2020/8/15,15:37,35-07.65N,140-31.67E,60,25.105,32.5967
939,2020/8/15,15:38,35-07.80N,140-31.95E,54,24.234,32.5357
940,2020/8/15,15:39,35-08.02N,140-32.14E,34,24.749,32.5372
941,2020/8/15,15:40,35-08.22N,140-32.29E,33,24.546,32.5349
942,2020/8/15,15:41,35-08.44N,140-32.48E,32,24.556,32.544
943,2020/8/15,15:42,35-08.69N,140-32.65E,32,24.881,32.5531
944,2020/8/15,15:43,35-08.91N,140-32.83E,32,25.026,32.5824
945,2020/8/15,15:44,35-09.14N,140-33.02E,34,24.412,32.5458
946,2020/8/15,15:45,35-09.36N,140-33.21E,33,24.454,32.5655
947,2020/8/15,15:46,35-09.60N,140-33.39E,32,25.269,32.6626
948,2020/8/15,15:47,35-09.86N,140-33.60E,34,25.434,32.6246
949,2020/8/15,15:48,35-10.09N,140-33.79E,34,25.45,32.5372
950,2020/8/15,15:49,35-10.32N,140-33.98E,34,25.149,32.4903
951,2020/8/15,15:50,35-10.55N,140-34.16E,33,25.473,32.5413
952,2020/8/15,15:51,35-10.78N,140-34.35E,33,24.927,32.5573
953,2020/8/15,15:52,35-11.01N,140-34.53E,33,24.602,32.558
954,2020/8/15,15:53,35-11.23N,140-34.71E,33,24.769,32.6624
955,2020/8/15,15:54,35-11.47N,140-34.90E,33,24.967,32.7332
956,2020/8/15,15:55,35-11.66N,140-35.06E,33,24.974,32.6895
957,2020/8/15,15:56,35-11.89N,140-35.24E,33,24.742,32.6659
958,2020/8/15,15:57,35-12.12N,140-35.42E,33,24.436,32.6249
959,2020/8/15,15:58,35-12.35N,140-35.60E,33,24.207,32.6427
960,2020/8/15,15:59,35-12.58N,140-35.79E,33,23.767,32.6551
961,2020/8/15,16:00,35-12.81N,140-35.97E,33,23.762,32.7405
962,2020/8/15,16:01,35-13.03N,140-36.16E,33,23.995,32.7876
963,2020/8/15,16:02,35-13.26N,140-36.35E,34,24.221,32.8105
964,2020/8/15,16:03,35-13.52N,140-36.56E,34,23.487,32.793
965,2020/8/15,16:04,35-13.75N,140-36.75E,34,23.936,32.8344
966,2020/8/15,16:05,35-13.94N,140-36.92E,34,24.522,32.8822
967,2020/8/15,16:06,35-14.17N,140-37.11E,35,24.836,32.8696
968,2020/8/15,16:07,35-14.40N,140-37.31E,35,24.909,32.8693
969,2020/8/15,16:08,35-14.62N,140-37.50E,35,24.833,32.8557
970,2020/8/15,16:09,35-14.85N,140-37.69E,35,24.768,32.8628
971,2020/8/15,16:10,35-15.07N,140-37.88E,35,24.761,32.8693
972,2020/8/15,16:11,35-15.29N,140-38.07E,35,24.697,32.8506
973,2020/8/15,16:12,35-15.52N,140-38.26E,34,24.683,32.8385
974,2020/8/15,16:13,35-15.75N,140-38.45E,35,24.677,32.8691
975,2020/8/15,16:14,35-15.98N,140-38.65E,33,24.658,32.8653
976,2020/8/15,16:15,35-16.20N,140-38.83E,35,24.728,32.8624
977,2020/8/15,16:16,35-16.43N,140-39.03E,35,24.629,32.8548
978,2020/8/15,16:17,35-16.65N,140-39.23E,35,24.589,32.8434
979,2020/8/15,16:18,35-16.91N,140-39.45E,34,24.566,32.8486
980,2020/8/15,16:19,35-17.15N,140-39.64E,34,24.608,32.8619
981,2020/8/15,16:20,35-17.34N,140-39.80E,34,24.63,32.8722
982,2020/8/15,16:21,35-17.57N,140-39.99E,34,24.681,32.863
983,2020/8/15,16:22,35-17.80N,140-40.19E,35,24.74,32.8391
984,2020/8/15,16:23,35-18.04N,140-40.40E,35,24.722,32.8153
985,2020/8/15,16:24,35-18.26N,140-40.59E,35,24.616,32.8064
986,2020/8/15,16:25,35-18.48N,140-40.78E,34,24.61,32.8251
987,2020/8/15,16:26,35-18.72N,140-40.98E,34,24.669,32.8671
988,2020/8/15,16:27,35-18.94N,140-41.16E,34,24.629,32.8536
989,2020/8/15,16:28,35-19.17N,140-41.36E,35,24.602,32.8367
990,2020/8/15,16:29,35-19.44N,140-41.59E,35,24.52,32.8278
991,2020/8/15,16:30,35-19.66N,140-41.79E,35,24.507,32.8305
992,2020/8/15,16:31,35-19.86N,140-41.97E,35,24.278,32.8634
993,2020/8/15,16:32,35-20.10N,140-42.16E,34,24.558,32.923
994,2020/8/15,16:33,35-20.32N,140-42.35E,34,24.682,32.9279
995,2020/8/15,16:34,35-20.56N,140-42.54E,35,24.712,32.8836
996,2020/8/15,16:35,35-20.78N,140-42.74E,35,24.731,32.8503
997,2020/8/15,16:36,35-21.02N,140-42.93E,34,24.781,32.8563
998,2020/8/15,16:37,35-21.25N,140-43.13E,34,24.761,32.8822
999,2020/8/15,16:38,35-21.48N,140-43.33E,34,24.764,32.9021
1000,2020/8/15,16:39,35-21.72N,140-43.52E,34,24.775,32.9171
1001,2020/8/15,16:40,35-21.97N,140-43.74E,34,24.875,32.9388
1002,2020/8/15,16:41,35-22.17N,140-43.91E,35,24.818,32.9441
1003,2020/8/15,16:42,35-22.40N,140-44.11E,35,24.832,32.9275
1004,2020/8/15,16:43,35-22.63N,140-44.31E,34,24.681,32.9386
1005,2020/8/15,16:44,35-22.86N,140-44.50E,34,24.461,32.9701